Weather in Priyutovo

Russia / Republic of Bashkortostan     53°53′42″N   53°56′12″E
temp.,
°C
wind,
m/s
gust,
m/s
humid.,
%
clouds,
%
prec.,
mm/h
press.,
hPa
HPBL,
m
28 november, sun
sun2823:00−10s5128215 0.0 1029169
02:00−11s513802 0.0 1028184
05:00−10s616765 0.0 1027255
08:00−9s5147765 0.0 1026255
11:00−7s61676100 0.0 1025333
14:00−5s71779100 0.0 1024472
17:00−4s71680100 0.0 1023409
20:00−4s61581100 0.0 1022368
29 november, mon
mon2923:00−4s6149099 0.0 1022416
02:00−4s51396100 0.3 1022384
05:00−3ssw51196100 0.6 1022346
08:00−2ssw51097100 0.1 1022312
11:00−2s4997100 0.1 1023278
14:00−1s4995100 0.0 1022272
17:00−1s41092100 0.0 1022307
20:00−1s41189100 0.0 1022321
30 november, tue
tue3023:00−1s61383100 0.0 1020332
02:00−2sse71582100 0.0 1018329
05:00−2sse8197895 0.0 1016369
08:00−3sse82078100 0.0 1014387
11:00−2sse102378100 0.0 1011511
14:00−1s102383100 0.1 1008554
17:00+1s122580100 0.2 1003629
20:00+1s112291100 1.5 1002729
1 december, wed
wed123:00+1ssw101999100 1.7 1002673
02:00+1ssw817100100 0.0 1002522
05:00+1ssw71498100 0.0 1001534
08:00+1sse61299100 0.0 1002334
11:00+1sse613100100 0.1 1000364
14:00+1se71493100 0.3 997381
17:00+1sse81791100 0.3 994547
20:00+1sse71396100 0.1 991431
2 december, thu
thu223:00+1s71699100 2.4 990480
02:00+1sw914100100 0.4 991787
05:00−2wsw81388100 0.6 997827
08:00−3wsw71193100 0.2 1001912
11:00−4sw6119397 0.3 1004754
14:00−4sw71185100 0.1 1005869
17:00−4sw5119699 0.3 1006625
20:00−3wsw61092100 0.4 1008740